SORTIE (45264 NORAD) Tracking and Keplerian Element Data

This shows tracking and keplerian element data for the satellite.

Feedback or suggestion? Click here.




ElementValue
Catalog45264
NameSORTIE
Epoch Orbit576
Epoch Day87.33928721
Epoch Year2020
RAAN33.2808
Inclination51.6436
Eccentricity0.0008553
Argument of Perigee65.3967
Mean Anonmoly294.7913
Mean Motion15.49934475
Decay Rate3.933E-05
L11 45264U 98067RH 20087.33928721 .00003933 00000-0 77018-4 0 9998
L22 45264 51.6436 33.2808 0008553 65.3967 294.7913 15.49934475 5763

Live tracking and technical data element details for SORTIE (NORAD 45264). SORTIE can be tracked NOW for your location showing map with azimuth and elevation plus other details from your city location.

Track the satellite on the map from your city or location and see movement details for azimuth, elevation, latitude, longitude, range, height, and movement on the map or in text.







IsCatalogInMostPopularTable: catalog: 45264, numindb: 9
Update: records affected: 1



GetName: 45264 SORTIE

Hit Count: updated at: Tue, 31 Mar 2020 12:58:24 GMT